TimeCDT,TemperatureF,Dew PointF,Humidity,Sea Level PressureIn,VisibilityMPH,Wind Direction,Wind SpeedMPH,Gust SpeedMPH,PrecipitationIn,Events,Conditions,WindDirDegrees,DateUTC
12:53 AM,72.0,57.9,61,29.96,10.0,SSW,15.0,-,N/A,,Scattered Clouds,200,2011-10-23 05:53:00
1:53 AM,72.0,59.0,64,29.95,10.0,South,13.8,-,N/A,,Overcast,190,2011-10-23 06:53:00
2:27 AM,71.6,59.0,64,29.98,10.0,SSW,8.1,19.6,N/A,Thunderstorm,Thunderstorm,200,2011-10-23 07:27:00
2:40 AM,71.6,60.8,69,30.03,10.0,Variable,6.9,-,N/A,Thunderstorm,Mostly Cloudy,0,2011-10-23 07:40:00
2:53 AM,64.9,59.0,81,30.04,10.0,NNE,21.9,29.9,0.00,Rain-Thunderstorm,Light Rain,20,2011-10-23 07:53:00
3:03 AM,62.6,60.8,94,30.06,4.0,NNE,12.7,25.3,0.05,Rain-Thunderstorm,Heavy Thunderstorms and Rain,20,2011-10-23 08:03:00
3:12 AM,62.6,60.8,94,30.06,2.5,Variable,4.6,18.4,0.13,Rain-Thunderstorm,Heavy Thunderstorms and Rain,0,2011-10-23 08:12:00
3:23 AM,62.6,60.8,94,30.01,3.0,SSE,11.5,19.6,0.21,Rain-Thunderstorm,Thunderstorms and Rain,160,2011-10-23 08:23:00
3:36 AM,62.6,60.8,94,30.02,9.0,South,6.9,-,0.22,Rain-Thunderstorm,Light Rain,180,2011-10-23 08:36:00
3:53 AM,62.1,62.1,100,30.01,9.0,South,4.6,-,0.23,Rain-Thunderstorm,Light Thunderstorms and Rain,170,2011-10-23 08:53:00
4:15 AM,62.6,62.6,100,30.00,10.0,East,6.9,-,0.01,Rain-Thunderstorm,Light Thunderstorms and Rain,80,2011-10-23 09:15:00
4:21 AM,62.6,62.6,100,30.00,10.0,East,8.1,-,0.01,Rain-Thunderstorm,Light Thunderstorms and Rain,90,2011-10-23 09:21:00
4:30 AM,62.6,62.6,100,30.00,10.0,East,8.1,-,0.01,Rain,Light Rain,90,2011-10-23 09:30:00
4:53 AM,62.1,62.1,100,29.98,10.0,East,10.4,-,0.01,,Overcast,90,2011-10-23 09:53:00
5:00 AM,62.6,62.6,100,30.01,10.0,ESE,4.6,-,N/A,,Overcast,120,2011-10-23 10:00:00
5:35 AM,62.6,62.6,100,30.01,10.0,SE,5.8,-,N/A,,Overcast,130,2011-10-23 10:35:00
5:53 AM,63.0,62.1,97,29.99,10.0,South,8.1,-,N/A,,Overcast,170,2011-10-23 10:53:00
6:31 AM,62.6,62.6,100,30.01,10.0,South,8.1,-,N/A,,Overcast,170,2011-10-23 11:31:00
6:53 AM,62.1,62.1,100,30.00,10.0,South,8.1,-,N/A,,Overcast,180,2011-10-23 11:53:00
7:22 AM,62.6,60.8,94,30.02,10.0,South,8.1,-,N/A,,Scattered Clouds,190,2011-10-23 12:22:00
7:53 AM,62.1,61.0,96,30.01,10.0,SSW,4.6,-,N/A,,Partly Cloudy,200,2011-10-23 12:53:00
8:53 AM,64.9,62.1,90,30.01,10.0,SSW,6.9,-,0.01,,Clear,200,2011-10-23 13:53:00
9:53 AM,66.9,62.1,84,30.02,10.0,SSW,11.5,-,N/A,,Scattered Clouds,210,2011-10-23 14:53:00
10:53 AM,70.0,63.0,78,30.02,10.0,South,9.2,-,N/A,,Partly Cloudy,190,2011-10-23 15:53:00
11:53 AM,73.9,64.0,71,30.02,10.0,Variable,6.9,17.3,N/A,,Clear,0,2011-10-23 16:53:00
12:18 PM,75.2,62.6,65,30.03,10.0,West,11.5,-,N/A,,Mostly Cloudy,260,2011-10-23 17:18:00
12:31 PM,75.2,62.6,65,30.03,10.0,WSW,11.5,-,N/A,,Overcast,240,2011-10-23 17:31:00
12:53 PM,75.0,64.0,69,30.01,10.0,WSW,8.1,-,N/A,,Overcast,250,2011-10-23 17:53:00
1:04 PM,75.2,64.4,69,30.03,10.0,WSW,8.1,-,N/A,,Overcast,250,2011-10-23 18:04:00
1:31 PM,73.4,64.4,73,30.02,10.0,WNW,6.9,-,N/A,,Overcast,290,2011-10-23 18:31:00
1:53 PM,75.0,64.0,69,30.00,10.0,WNW,6.9,-,N/A,,Overcast,300,2011-10-23 18:53:00
2:02 PM,75.2,64.4,69,30.02,10.0,NW,10.4,-,N/A,,Overcast,310,2011-10-23 19:02:00
2:53 PM,75.9,63.0,64,29.99,10.0,NNW,6.9,-,N/A,,Overcast,340,2011-10-23 19:53:00
3:53 PM,77.0,64.0,64,29.99,10.0,North,6.9,-,N/A,,Mostly Cloudy,360,2011-10-23 20:53:00
4:53 PM,78.1,63.0,60,29.99,10.0,NNW,6.9,-,N/A,,Clear,330,2011-10-23 21:53:00
5:53 PM,75.9,63.0,64,30.01,10.0,NNE,5.8,-,N/A,,Scattered Clouds,20,2011-10-23 22:53:00
6:53 PM,72.0,63.0,73,30.03,10.0,NNE,5.8,-,N/A,,Clear,20,2011-10-23 23:53:00
7:53 PM,69.1,63.0,81,30.05,10.0,NNE,4.6,-,N/A,,Clear,30,2011-10-24 00:53:00
8:53 PM,66.9,63.0,87,30.09,10.0,Calm,Calm,-,N/A,,Clear,0,2011-10-24 01:53:00
9:53 PM,66.0,62.1,87,30.10,10.0,ENE,3.5,-,N/A,,Clear,60,2011-10-24 02:53:00
10:53 PM,64.9,61.0,87,30.11,10.0,Calm,Calm,-,N/A,,Clear,0,2011-10-24 03:53:00
11:53 PM,62.1,60.1,93,30.12,8.0,Calm,Calm,-,N/A,,Clear,0,2011-10-24 04:53:00